Flag Weather past 2 weeks in Murmansk, Russia

Now
23 °F

Passing clouds.


Feels Like: 16 °F
Forecast: 17 / 28 °F
Wind: 6 mph from West

Location: Murmansk Airport

Current Time: Nov 28, 2014 at 11:43:03 AM

Latest Report: Nov 28, 2014 at 11:00 AM


Visibility: N/A

Pressure: 30.21 "Hg

Humidity: 93%

Dew point: 21 °F

Location of MurmanskLocation

Historic Weather in Murmansk — Graph

°F

Murmansk temperature yesterday

Maximum temperature yesterday: 28 °F (at 12:00 AM)
Minimum temperature yesterday: 14 °F (at 10:30 PM)
Average temperature yesterday: 24 °F

Past Weeks' High & Low Weather Summary

 TemperatureHumidityPressure
High34 °F (Nov 19, 12:30 AM)100% (Nov 25, 8:00 AM)30.57 "Hg (Nov 25, 8:00 AM)
Low-8 °F (Nov 15, 10:00 AM)74% (Nov 13, 9:00 PM)29.95 "Hg (Nov 26, 7:00 AM)
Average24 °F87%30.20 "Hg
* Reported Nov 13 10:00 AM — Nov 28 10:30 AM, Murmansk, Weather by CustomWeather, © 2014

Note: Actual official high and low records may vary slightly from our data, if they occured in-between our weather recording intervals... More about our weather records

Advertising

Murmansk weather history for previous 24 hours

 ConditionsComfort  
Time TempWeatherWind HumidityBarometerVisibility
10:30 AM
Nov 28
23 °FLow clouds.6 mph93%30.18 "HgN/A
10:00 AM23 °FLow clouds.6 mph93%30.18 "HgN/A
9:30 AM23 °FLow clouds.6 mph93%30.18 "HgN/A
9:00 AM23 °FPassing clouds.3 mph86%30.18 "HgN/A
8:30 AM23 °FPassing clouds.3 mph86%30.18 "HgN/A
8:00 AM23 °FPassing clouds.8 mph86%30.15 "HgN/A
7:30 AM23 °FPassing clouds.6 mph86%30.15 "HgN/A
7:00 AM23 °FClear.6 mph86%30.15 "Hg10 mi
6:30 AM25 °FClear.8 mph86%30.15 "Hg10 mi
6:00 AM25 °FClear.8 mph93%30.12 "Hg10 mi
5:30 AM19 °FClear.6 mph93%30.12 "Hg10 mi
5:00 AM14 °FClear.3 mph85%30.12 "Hg10 mi
4:30 AM16 °FPassing clouds.1 mph86%30.12 "HgN/A
4:00 AM16 °FPassing clouds.No wind86%30.12 "HgN/A
3:30 AM16 °FPassing clouds.No wind86%30.12 "HgN/A
3:00 AM18 °FPassing clouds.1 mph93%30.12 "HgN/A
2:30 AM18 °FPassing clouds.3 mph93%30.12 "HgN/A
2:00 AM16 °FPassing clouds.No wind93%30.12 "HgN/A
1:30 AM14 °FPassing clouds.No wind92%30.12 "HgN/A
1:00 AM18 °FPassing clouds.1 mph86%30.12 "HgN/A
12:30 AM16 °FPassing clouds.No wind93%30.12 "HgN/A
12:00 AM18 °FPassing clouds.No wind93%30.12 "HgN/A
11:30 PM
Nov 27
18 °FPassing clouds.No wind93%30.12 "HgN/A
11:00 PM18 °FPassing clouds.1 mph93%30.12 "HgN/A
10:30 PM14 °FPassing clouds.3 mph92%30.12 "HgN/A
10:00 PM16 °FPassing clouds.No wind93%30.12 "HgN/A
9:30 PM21 °FPassing clouds.1 mph93%30.12 "HgN/A
9:00 PM16 °FPassing clouds.1 mph86%30.12 "HgN/A
8:30 PM16 °FPassing clouds.No wind93%30.12 "HgN/A
8:00 PM21 °FPassing clouds.1 mph100%30.12 "HgN/A
7:30 PM21 °FPassing clouds.3 mph93%30.12 "HgN/A
7:00 PM23 °FLow clouds.1 mph93%30.12 "Hg1 mi
6:30 PM25 °FIce fog.1 mph93%30.12 "Hg0 mi
6:00 PM23 °FPassing clouds.No wind93%30.12 "Hg0 mi
5:30 PM23 °FPassing clouds.1 mph100%30.12 "Hg0 mi
5:00 PM25 °FPassing clouds.1 mph100%30.12 "HgN/A
4:30 PM27 °FPassing clouds.1 mph93%30.12 "HgN/A
4:00 PM25 °FPassing clouds.3 mph93%30.12 "Hg6 mi
3:30 PM27 °FIce fog.No wind100%30.15 "Hg0 mi
3:00 PM27 °FIce fog.No wind100%30.15 "Hg0 mi
2:30 PM27 °FIce fog.1 mph100%30.15 "Hg1 mi
2:00 PM27 °FIce fog.No wind100%30.15 "Hg1 mi
1:30 PM27 °FIce fog.No wind100%30.15 "Hg1 mi
1:00 PM27 °FLow clouds.No wind100%30.15 "Hg5 mi
12:30 PM27 °FLow clouds.No wind93%30.15 "HgN/A
12:00 PM27 °FLow clouds.No wind93%30.15 "HgN/A
11:00 AM27 °FLow clouds.No wind93%30.12 "HgN/A
Weather by CustomWeather, © 2014

See weather overviewHow to use our weather pages